AirNav   Everest Fuels
 
 1115 users online  

E13 Crane County Airport
Crane, Texas, USA

GOING TO CRANE?


FAA INFORMATION EFFECTIVE 26 MARCH 2020

Location

FAA Identifier: E13
Lat/Long: 31-24-41.6650N 102-21-37.7050W
31-24.694417N 102-21.628417W
31.4115736,-102.3604736
(estimated)
Elevation: 2554.7 ft. / 779 m (estimated)
Variation: 09E (1985)
From city: 1 mile NW of CRANE, TX
Time zone: UTC -5 (UTC -6 during Standard Time)
Zip code: 79731

Airport Operations

Airport use: Open to the public
Activation date: 03/1943
Control tower: no
ARTCC: FORT WORTH CENTER
FSS: SAN ANGELO FLIGHT SERVICE STATION
NOTAMs facility: SJT (NOTAM-D service available)
Attendance: UNATNDD
Wind indicator: lighted
Segmented circle: yes
Lights: PAPI RWY 12 & 30; MIRL RWY 12/30 OFF SS-SR. CTAF TO ACTV 3 TIMES LOW, 5 TIMES MED, 7 TIMES HIGH.
Beacon: white-green (lighted land airport)
Operates sunset to sunrise.

Airport Communications

CTAF: 122.9

Nearby radio navigation aids

VOR radial/distance  VOR name  Freq  Var
MAFr183/36.9MIDLAND VORTAC114.8011E

Airport Services

Fuel available: 100LL
FOR FUEL CALL 432-558-3571.
Parking: tiedowns

Runway Information

Runway 12/30

Dimensions: 4258 x 70 ft. / 1298 x 21 m
Surface: asphalt, in fair condition
Runway edge lights: medium intensity
RUNWAY 12  RUNWAY 30
Latitude: 31-24.892500N31-24.496333N
Longitude: 102-21.966500W102-21.290333W
Elevation: 2537.9 ft.2554.7 ft.
Traffic pattern: leftleft
Displaced threshold: no488 ft.
Markings: nonprecision, in good conditionnonprecision, in good condition
Visual slope indicator: 2-light PAPI on left (3.50 degrees glide path)2-light PAPI on left (3.00 degrees glide path)
Touchdown point: yes, no lightsyes, no lights
Obstructions: none
+30 FT MARKED POWER LINE 930 FT FM THLD; 220 FT RIGHT.
25 ft. pole, 343 ft. from runway, 52 ft. right of centerline, 5:1 slope to clear
4 FT FENCE 56 FT FM THLD; 111 FT R & EXTENDS ACROSS APPROACH.

Runway 15/33

Dimensions: 3395 x 50 ft. / 1035 x 15 m
Surface: asphalt, in fair condition
RUNWAY 15  RUNWAY 33
Traffic pattern: leftleft
Displaced threshold: no176 ft.
Markings: basic, in good conditionbasic, in good condition
Obstructions: 12 ft. trees, 200 ft. from runway
ROAD 12 FT FM THR ACRS APCH; +5 FT FENCE 160 FT FM THR ON CNTRLN, +12 FT VEGETATION 160 FT FM THLD ACROSS APCH.
33 ft. pline, marked, 696 ft. from runway, 15:1 slope to clear
APCH RATIO 31:1 FM DSPLCD THLD TO +30 FT PLINE 941 FT FM DSPLCD THLD ACROSS APCH.

Airport Ownership and Management from official FAA records

Ownership: Publicly-owned
Owner: CRANE COUNTY
COUNTY COURTHOUSE
CRANE, TX 79731
Phone (432) 558-1100
Manager: TODD SEABOURN
PO BOX 667
CRANE, TX 79731
Phone 432-558-1100
PARKS DEPT, 432-631-5196 MGR CELL.

Airport Operational Statistics

Aircraft based on the field: 3
Single engine airplanes: 3
    
Aircraft operations: avg 21/week *
55% local general aviation
45% transient general aviation
* for 12-month period ending 03 January 2018

Additional Remarks

RWY 12/30 PRI SFC OBSTD BY PUMPJACK 116 FT FM CNTRLN 80 FT NW OF DSPLCD THLD ON RWY 30.
+ 16 FT PUMP JACK 250 FT WEST OF RWY 15 CNTRLN NEAR THLD.
FOR CD CTC FORT WORTH ARTCC AT 817-858-7584.

Instrument Procedures

There are no published instrument procedures at E13.

Some nearby airports with instrument procedures:

E01 - Roy Hurd Memorial Airport (30 nm W)
KODO - Odessa Airport-Schlemeyer Field (31 nm N)
KMAF - Midland International Air and Space Port Airport (33 nm N)
KMDD - Midland Airpark (40 nm N)
KFST - Fort Stockton-Pecos County Airport (41 nm SW)
 
Loc | Ops | Rwys | IFR | FBO | Links
Com | Nav | Svcs | Stats | Notes

Chandler Aviation LLC
 
Area around E13 (Crane County Airport)
 
Road maps at: MapQuest Bing Google
 
Aerial photo
WARNING: Photo may not be current or correct
Aerial photo of E13 (Crane County Airport)
Photo by Marc Marchesseault
Photo taken 16-Oct-2008
looking north

Do you have a better or more recent aerial photo of Crane County Airport that you would like to share? If so, please send us your photo.

 
Sectional chart

 
Airport distance calculator
Flying to Crane County Airport? Find the distance to fly.

From to E13

Sunrise and sunset
Times for 10-Apr-2020
 Local
(UTC-5)
 Zulu
(UTC)
Morning civil twilight07:0212:02
Sunrise07:2712:27
Sunset20:1401:14
Evening civil twilight20:3901:39

Current date and time
Zulu (UTC)  10-Apr-2020 19:18:17
Local (UTC-5)  10-Apr-2020 14:18:17
 
METAR
KODO 
30nm N 
101853Z AUTO 11014G19KT 10SM FEW095 21/09 A3004 RMK AO2 PK WND 12026/1804 SLP141 T02110089
KMAF 
33nm N 
101853Z 12017G21KT 10SM CLR 23/09 A3003 RMK AO2 SLP135 T02280094
KMDD 
40nm N 
101855Z AUTO 12015G20KT 10SM BKN110 21/09 A3004 RMK AO2 T02110093
KFST 
41nm SW 
101853Z AUTO 13013G20KT 10SM SCT047 BKN110 25/13 A2998 RMK AO2 SLP110 T02500128
KINK 
48nm NW 
101853Z AUTO 11011KT 10SM BKN029 20/11 A3001 RMK AO2 SLP132 T02000111
TAF
KMAF 
33nm N 
101725Z 1018/1118 11012KT P6SM SCT100 FM110000 13015G23KT P6SM BKN090 TEMPO 1100/1104 4SM TSRA BR OVC025CB FM110400 15012KT P6SM BKN050 TEMPO 1104/1108 5SM TSRA BKN020CB FM110800 15012KT P6SM OVC020
KFST 
41nm SW 
101725Z 1018/1118 12014G20KT P6SM BKN080 TEMPO 1018/1021 4SM -SHRA BKN100 FM110000 14020G29KT P6SM BKN080 FM110800 18013KT P6SM BKN040
NOTAMs
Click for the latest NOTAMs
NOTAMs are issued by the DoD/FAA and will open in a separate window not controlled by AirNav.

 

 
 

FBO, Fuel Providers, and Aircraft Ground Support

  
 Business Name 
 
 Contact 
 
 Services / Description 
 
Fuel Prices
 
Comments
  
Crane County Airport 432-558-1103
no information available

If you are affiliated with Crane County Airport and would like to show here your services, contact info, web link, logo, and more, click here
100LL
PS $4.32 
 Updated 27-Sep-2018
 
   1 read write
PS=Pump service
Update Fuel Prices
 

Would you like to see your business listed on this page?

 If your business provides an interesting product or service to pilots, flight crews, aircraft, or users of the Crane County Airport, you should consider listing it here.  To start the listing process, click on the button below
 
Add a business
 

Other Pages about Crane County Airport

Update a link
 
Copyright © AirNav, LLC. All rights reserved. Privacy Policy  Contact